GW1195 Weather Reports


time (UTC)temp
C
wind
direction
speed
KPH
gust
KPH
rain 1hr
cm
rain 24hr
cm
rain mn
cm
humidity
%
barometer
mb
20260505110105 11 0 0.0 9.7 0.00 0.00 0.00 91 1015.3
20260505101542 11 240 1.6 8.0 0.00 0.00 0.00 90 1015.0
20260505100044 11 0 4.8 11.3 0.00 0.00 0.00 90 1015.1
20260505094541 11 0 1.6 6.4 0.00 0.00 0.00 91 1015.0
20260505093049 11 0 0.0 8.0 0.00 0.00 0.00 92 1015.1
20260505091535 11 168 1.6 8.0 0.00 0.00 0.00 91 1015.0
20260505090043 12 163 1.6 9.7 0.00 0.00 0.00 91 1014.9
20260505084551 12 186 1.6 6.4 0.00 0.00 0.00 91 1014.8
20260505083054 12 144 1.6 4.8 0.00 0.00 0.00 91 1014.8
20260505081540 12 171 0.0 8.0 0.00 0.00 0.00 91 1014.8
20260505080038 12 159 0.0 6.4 0.00 0.00 0.00 91 1014.9
20260505074544 12 165 1.6 8.0 0.00 0.00 0.00 91 1014.8
20260505073048 11 0 0.0 3.2 0.00 0.00 0.00 91 1014.7
20260505071540 11 0 0.0 3.2 0.00 0.00 0.00 91 1014.8
20260505070042 11 171 0.0 3.2 0.00 0.00 0.00 92 1014.6
20260505064614 11 173 1.6 6.4 0.00 0.00 0.00 92 1014.6
20260505063041 11 0 1.6 8.0 0.00 0.00 0.00 92 1014.6
20260505061541 11 183 3.2 8.0 0.00 0.00 0.00 92 1014.6
20260505060044 12 0 0.0 6.4 0.00 0.00 0.00 91 1014.7
20260505054548 12 150 1.6 6.4 0.00 0.00 0.00 91 1014.7
20260505053045 12 164 1.6 8.0 0.00 0.00 0.00 90 1014.7
20260505051542 12 174 3.2 9.7 0.00 0.00 0.00 90 1014.7
20260505041537 12 242 3.2 11.3 0.00 0.00 0.00 89 1014.4
20260505040050 12 203 3.2 9.7 0.00 0.00 0.00 88 1014.3
20260505034603 12 199 3.2 11.3 0.00 0.00 0.00 87 1014.1
20260505033043 12 220 3.2 11.3 0.00 0.00 0.00 86 1014.0
20260505031544 12 151 3.2 12.9 0.00 0.00 0.00 86 1014.1
20260505030047 13 207 1.6 9.7 0.00 0.00 0.00 85 1013.9
20260505024545 13 0 1.6 6.4 0.00 0.00 0.00 84 1013.8
20260505023046 13 232 3.2 11.3 0.00 0.00 0.00 83 1013.8
20260505021541 13 263 1.6 11.3 0.00 0.00 0.00 82 1013.7
20260505020053 13 254 6.4 14.5 0.00 0.00 0.00 82 1013.8
20260505014542 13 261 4.8 17.7 0.00 0.00 0.00 82 1014.0
20260505013041 14 238 3.2 12.9 0.00 0.00 0.00 80 1014.1
20260505011546 15 265 6.4 14.5 0.00 0.00 0.00 79 1014.0
20260505010104 15 264 4.8 11.3 0.00 0.00 0.00 78 1014.1
20260505004558 15 0 1.6 11.3 0.00 0.00 0.00 78 1014.0
20260505003042 15 235 4.8 16.1 0.00 0.00 0.00 78 1014.1
20260505001543 15 265 6.4 17.7 0.00 0.00 0.00 77 1014.2
20260505000041 15 267 6.4 17.7 0.00 0.00 0.00 77 1014.2
20260504234544 16 265 8.0 19.3 0.00 0.00 0.00 75 1014.1
20260504233044 16 286 8.0 16.1 0.00 0.00 0.00 76 1014.2
20260504231558 16 231 8.0 19.3 0.00 0.00 0.00 76 1014.3
20260504230042 16 255 9.7 22.5 0.00 0.00 0.00 76 1014.2
20260504224543 16 255 8.0 19.3 0.00 0.00 0.00 75 1014.3
20260504223040 16 244 6.4 16.1 0.00 0.00 0.00 74 1014.3
20260504221612 17 261 6.4 19.3 0.00 0.00 0.00 73 1014.3
20260504220043 16 285 8.0 16.1 0.00 0.00 0.00 75 1014.3
20260504214538 16 265 8.0 17.7 0.00 0.00 0.00 74 1014.3
20260504213044 17 271 4.8 16.1 0.00 0.00 0.00 73 1014.3
20260504211541 17 288 4.8 19.3 0.00 0.00 0.00 73 1014.3
20260504210047 17 252 1.6 12.9 0.00 0.00 0.00 75 1014.4
20260504204542 16 277 3.2 11.3 0.00 0.00 0.00 76 1014.5
20260504203045 16 200 4.8 12.9 0.00 0.00 0.00 77 1014.7
20260504201544 16 220 3.2 16.1 0.00 0.00 0.00 78 1014.9
20260504200041 16 191 3.2 14.5 0.00 0.00 0.00 78 1014.7
20260504194549 15 283 4.8 12.9 0.00 0.00 0.00 80 1014.9
20260504193046 15 180 0.0 8.0 0.00 0.00 0.00 79 1014.8
20260504191608 15 209 3.2 11.3 0.00 0.00 0.00 80 1014.8
20260504190045 15 198 3.2 11.3 0.00 0.00 0.00 81 1014.9
20260504184554 15 195 3.2 11.3 0.00 0.00 0.00 81 1014.8
20260504183041 14 182 3.2 11.3 0.00 0.00 0.00 82 1014.6
20260504181542 14 167 3.2 9.7 0.00 0.00 0.00 82 1014.5
20260504180040 14 207 1.6 8.0 0.00 0.00 0.00 83 1014.5
20260504174544 14 197 3.2 9.7 0.00 0.00 0.00 83 1014.4
20260504173044 13 168 1.6 6.4 0.00 0.00 0.00 83 1014.4
20260504171543 13 173 3.2 8.0 0.00 0.00 0.00 85 1014.4